Change the Weather History Date:

Wednesday, July 23, 2014

  Actual Average Record
Temperature  
Mean Temperature 67 °F 63 °F  
Max Temperature 92 °F 82 °F 94 °F (2003)
Min Temperature 42 °F 44 °F 33 °F (2001)
Degree Days  
Heating Degree Days 0 3  
Month to date heating degree days 28 91  
Since 1 June heating degree days 375 396  
Since 1 July heating degree days 28 91  
Cooling Degree Days 2 1  
Month to date cooling degree days 20 15  
Year to date cooling degree days 20 17  
Since 1 June cooling degree days 20 17  
Growing Degree Days 16 (Base 50)    
Moisture  
Dew Point 35 °F    
Average Humidity 37    
Maximum Humidity 62    
Minimum Humidity 12    
Precipitation  
Precipitation 0.03 in 0.02 in 0.27 in (1993)
Month to date precipitation 0.28 0.48  
Year to date precipitation 1.61 3.74  
Sea Level Pressure  
Sea Level Pressure 30.08 in    
Wind  
Wind Speed 8 mph (SW)    
Max Wind Speed 35 mph    
Max Gust Speed 46 mph    
Visibility 10 miles    
Events Rain , Thunderstorm    
T = Trace of Precipitation, MM = Missing Value Source: NWS Daily Summary

Daily Weather History Graph

Daily Weather History Graph

Search for Another Location

Airport or City:

Trip Planner

Search our weather history database for the weather conditions in past years. The results will help you decide how hot, cold, wet, or windy it might be!

Date:

Astronomy

Jul. 23, 2014 Rise Set
Actual Time 6:03 AM MDT 8:49 PM MDT
Civil Twilight 5:30 AM MDT 9:22 PM MDT
Nautical Twilight 4:49 AM MDT 10:03 PM MDT
Astronomical Twilight 4:01 AM MDT 10:51 PM MDT
Moon 3:25 AM MDT (7/23) 6:20 PM MDT (7/23)
Length of Visible Light 15h 52m
Length of Day
14h 46m
Waning Crescent, 9% of the Moon is Illuminated
Jul 23
Waning Crescent
Jul 26
New
Aug 3
First Quarter
Aug 10
Full
Aug 17
Last Quarter

Hourly Weather History & Observations

Time (MDT) Temp. Windchill Dew Point Humidity Pressure Visibility Wind Dir Wind Speed Gust Speed Precip Events Conditions
12:53 AM 53.1 °F - 28.9 °F 40% 30.11 in 10.0 mi WSW 3.5 mph - N/A   Clear
1:53 AM 48.0 °F - 26.1 °F 42% 30.11 in 10.0 mi Calm Calm - N/A   Clear
2:53 AM 51.1 °F - 30.9 °F 46% 30.08 in 10.0 mi ESE 3.5 mph - N/A   Clear
3:53 AM 46.9 °F - 27.0 °F 46% 30.09 in 10.0 mi East 4.6 mph - N/A   Clear
4:53 AM 46.9 °F - 32.0 °F 56% 30.09 in 10.0 mi East 4.6 mph - N/A   Clear
5:53 AM 43.0 °F 41.3 °F 28.0 °F 56% 30.11 in 10.0 mi NW 3.5 mph - N/A   Clear
6:53 AM 44.1 °F 40.8 °F 32.0 °F 63% 30.12 in 10.0 mi NNW 5.8 mph - N/A   Clear
7:53 AM 57.9 °F - 33.1 °F 39% 30.09 in 10.0 mi Calm Calm - N/A   Clear
8:53 AM 64.9 °F - 34.0 °F 32% 30.11 in 10.0 mi East 6.9 mph - N/A   Clear
9:53 AM 71.1 °F - 30.9 °F 23% 30.09 in 10.0 mi Variable 3.5 mph - N/A   Clear
10:53 AM 77.0 °F - 33.1 °F 20% 30.08 in 10.0 mi Variable 4.6 mph - N/A   Clear
11:53 AM 82.9 °F - 32.0 °F 16% 30.06 in 10.0 mi SSW 9.2 mph - N/A   Clear
12:53 PM 84.9 °F - 27.0 °F 12% 30.04 in 10.0 mi West 6.9 mph - N/A   Partly Cloudy
1:53 PM 84.9 °F - 39.9 °F 20% 30.05 in 10.0 mi West 15.0 mph 23.0 mph N/A   Scattered Clouds
2:53 PM 90.0 °F - 36.0 °F 15% 30.00 in 10.0 mi WSW 15.0 mph - N/A   Clear
3:53 PM 90.0 °F - 30.9 °F 12% 29.98 in 10.0 mi West 8.1 mph 18.4 mph N/A   Partly Cloudy
4:53 PM 90.0 °F - 37.9 °F 16% 29.96 in 10.0 mi West 9.2 mph - N/A   Clear
5:53 PM 89.1 °F - 33.1 °F 14% 29.96 in 10.0 mi West 10.4 mph - N/A   Clear
6:53 PM 86.0 °F - 39.0 °F 19% 29.96 in 10.0 mi West 11.5 mph - N/A   Clear
7:53 PM 82.9 °F - 36.0 °F 19% 29.91 in 10.0 mi WNW 11.5 mph - N/A   Clear
8:53 PM 73.4 °F - 35.6 °F 25% 30.23 in 10.0 mi NNW 6.9 mph - N/A   Clear
9:53 PM 75.2 °F - 37.4 °F 25% 30.25 in 10.0 mi South 13.8 mph - N/A   Mostly Cloudy
10:53 PM 72.0 °F - 37.9 °F 29% 29.87 in 10.0 mi South 9.2 mph - N/A   Partly Cloudy
11:11 PM 72.0 °F - 39.9 °F 31% 30.26 in 10.0 mi SSW 13.8 mph - N/A Thunderstorm Partly Cloudy
11:26 PM 66.0 °F - 50.0 °F 56% 30.30 in 6.0 mi SW 31.1 mph 46.0 mph 0.02 in Rain , Thunderstorm Heavy Thunderstorms and Rain
11:51 PM 66.2 °F - 48.2 °F 52% 30.26 in 10.0 mi South 19.6 mph 26.5 mph 0.03 in Rain , Thunderstorm Light Rain
11:52 PM 66.9 °F - 48.0 °F 51% 29.90 in 10.0 mi South 19.6 mph 26.5 mph 0.03 in Rain , Thunderstorm Light Rain
11:55 PM 66.9 °F - 48.0 °F 51% 30.25 in 10.0 mi South 16.1 mph 26.5 mph 0.00 in   Scattered Clouds